Location: Mohawk View
(42.7837°N, 73.7885°W)
Time: 17:02:16
(UTC+00:00)

Landsat 4 - Pass Details

Date: 17 June 2021
Orbit: 502 x 522 km, 98.2° (Epoch: 01 August)

Event Time Altitude Azimuth Distance (km) Brightness Sun altitude
Rises 06:58:28 0° 17° (NNE) 2,658 8.9 -18.1°
Reaches altitude 10° 07:00:37 10° 21° (NNE) 1,763 7.7 -17.9°
Maximum altitude 07:04:21 57° 101° (E) 616 4.1 -17.5°
Enters shadow 07:05:57 31° 167° (SSE) 934 4.6 -17.4°
